GW5242 Weather Reports


time (UTC)temp
C
wind
direction
speed
KPH
gust
KPH
rain 1hr
cm
rain 24hr
cm
rain mn
cm
humidity
%
barometer
mb
20260508140903 13 142 4.8 16.1 0.00 0.15 0.03 67 1017.5
20260508140003 13 138 4.8 16.1 0.00 0.15 0.03 66 1017.5
20260508135403 13 140 4.8 16.1 0.00 0.15 0.03 67 1017.5
20260508134503 13 139 6.4 16.1 0.00 0.15 0.03 68 1017.5
20260508133603 13 140 4.8 20.9 0.00 0.15 0.03 69 1017.4
20260508132918 13 140 6.4 20.9 0.00 0.15 0.03 70 1017.4
20260508131804 13 125 6.4 22.5 0.00 0.15 0.03 71 1017.4
20260508131117 13 134 6.4 24.1 0.00 0.15 0.03 71 1017.1
20260508130218 13 125 6.4 20.9 0.00 0.15 0.03 71 1017.1
20260508124503 12 125 4.8 20.9 0.00 0.15 0.03 73 1016.8
20260508123603 12 122 4.8 16.1 0.00 0.15 0.03 74 1017.1
20260508122918 12 125 4.8 20.9 0.00 0.13 0.00 74 1017.2
20260508121803 12 129 4.8 12.9 0.00 0.15 0.00 74 1017.1
20260508120903 12 131 3.2 12.9 0.00 0.15 0.00 74 1016.8
20260508120218 12 129 3.2 11.3 0.00 0.15 0.00 74 1016.9
20260508113603 11 136 3.2 11.3 0.00 0.15 0.00 75 1016.8
20260508112919 11 143 1.6 8.0 0.00 0.41 0.00 76 1016.8
20260508111804 11 145 3.2 16.1 0.00 0.43 0.00 76 1016.7
20260508110903 11 139 3.2 22.5 0.00 0.43 0.00 76 1016.7
20260508110005 11 130 3.2 11.3 0.00 0.43 0.00 76 1016.5
20260508105403 11 143 3.2 11.3 0.00 0.43 0.00 76 1016.5
20260508104716 11 140 3.2 16.1 0.00 0.43 0.00 76 1016.6
20260508103603 11 138 3.2 16.1 0.00 0.43 0.00 78 1016.5
20260508102703 11 142 3.2 20.9 0.00 0.43 0.00 78 1016.5
20260508101803 11 142 3.2 11.3 0.00 0.43 0.00 77 1016.4
20260508101118 11 140 3.2 16.1 0.00 0.43 0.00 77 1016.2
20260508100004 11 147 3.2 12.9 0.00 0.43 0.00 77 1016.4
20260508095403 11 143 4.8 16.1 0.00 0.43 0.00 77 1016.4
20260508094503 11 156 3.2 12.9 0.00 0.43 0.00 79 1016.4
20260508093603 11 149 1.6 8.0 0.00 0.43 0.00 79 1016.4
20260508092703 11 148 1.6 11.3 0.00 0.43 0.00 79 1016.4
20260508091803 11 160 3.2 8.0 0.00 0.51 0.00 80 1016.3
20260508090903 11 145 1.6 6.4 0.00 0.53 0.00 81 1015.9
20260508090003 11 149 1.6 8.0 0.00 0.53 0.00 81 1016.1
20260508085403 11 151 1.6 8.0 0.00 0.53 0.00 82 1015.9
20260508084503 11 179 3.2 8.0 0.00 0.53 0.00 83 1015.9
20260508083817 11 186 4.8 11.3 0.00 0.53 0.00 84 1016.0
20260508082703 11 179 3.2 8.0 0.00 0.53 0.00 84 1015.9
20260508081804 11 174 3.2 8.0 0.00 0.53 0.00 85 1015.8
20260508080903 10 170 3.2 8.0 0.00 0.53 0.00 85 1015.8
20260508080004 10 177 1.6 6.4 0.00 0.53 0.00 86 1015.7
20260508075403 10 174 1.6 6.4 0.00 0.53 0.00 86 1015.3
20260508074503 10 160 1.6 6.4 0.00 0.53 0.00 86 1015.3
20260508073603 10 166 1.6 6.4 0.00 0.53 0.00 87 1015.3
20260508072704 10 156 1.6 6.4 0.00 0.53 0.00 87 1015.1
20260508071804 9 110 0.0 4.8 0.00 0.53 0.00 87 1015.0
20260508070903 9 110 0.0 4.8 0.00 0.53 0.00 87 1015.1
20260508070005 9 110 0.0 1.6 0.00 0.53 0.00 87 1015.0
20260508065620 8 110 0.0 1.6 0.00 0.53 0.00 87 1014.9
20260508064503 8 110 0.0 4.8 0.00 0.56 0.00 87 1014.7
20260508063603 8 110 0.0 1.6 0.00 0.56 0.00 87 1014.7
20260508062703 8 110 0.0 1.6 0.00 0.61 0.00 87 1014.5
20260508061804 8 110 0.0 1.6 0.00 0.61 0.00 87 1014.3
20260508060903 8 110 0.0 1.6 0.00 0.61 0.00 87 1014.5
20260508060217 8 110 0.0 1.6 0.00 0.61 0.00 87 1014.1
20260508055404 8 110 0.0 1.6 0.00 0.61 0.00 86 1014.3
20260508054504 8 110 0.0 1.6 0.00 0.61 0.00 86 1014.0
20260508053603 8 110 0.0 1.6 0.00 0.61 0.00 86 1014.1
20260508052703 8 110 0.0 1.6 0.00 0.61 0.00 86 1014.1
20260508051803 8 0 0.0 0.0 0.00 0.61 0.00 86 1014.0
20260508050904 8 0 0.0 0.0 0.00 0.64 0.00 86 1014.1
20260508050003 8 0 0.0 0.0 0.00 0.66 0.00 86 1013.7
20260508045403 8 0 0.0 0.0 0.00 0.66 0.00 86 1013.7
20260508044503 8 0 0.0 0.0 0.00 0.66 0.00 86 1013.7
20260508043604 8 0 0.0 0.0 0.00 0.66 0.00 86 1013.8
20260508042919 8 0 0.0 0.0 0.00 0.66 0.00 86 1013.6
20260508041803 8 0 0.0 0.0 0.00 0.66 0.00 86 1013.9
20260508041117 8 0 0.0 0.0 0.00 0.66 0.00 86 1013.6
20260508040004 8 0 0.0 0.0 0.00 0.66 0.00 86 1013.4
20260508035403 8 0 0.0 0.0 0.00 0.66 0.00 86 1013.6
20260508034718 8 0 0.0 0.0 0.00 0.66 0.00 86 1013.6
20260508033819 8 0 0.0 0.0 0.00 0.69 0.00 86 1013.5
20260508032703 8 110 0.0 1.6 0.00 0.76 0.00 86 1013.5
20260508031803 8 110 0.0 1.6 0.00 0.76 0.00 86 1013.5
20260508030903 8 0 0.0 0.0 0.00 0.76 0.00 86 1013.4
20260508030003 9 0 0.0 0.0 0.00 0.76 0.00 86 1013.5
20260508025403 9 0 0.0 0.0 0.00 0.76 0.00 86 1013.5
20260508024503 9 0 0.0 0.0 0.00 0.76 0.00 86 1013.4
20260508023603 9 0 0.0 0.0 0.00 0.76 0.00 86 1013.6
20260508022703 9 0 0.0 0.0 0.00 0.76 0.00 86 1013.5
20260508021803 9 0 0.0 1.6 0.00 0.76 0.00 86 1013.2
20260508020903 9 110 0.0 1.6 0.00 0.76 0.00 86 1013.3
20260508020004 9 110 0.0 1.6 0.00 0.76 0.00 86 1012.9
20260508015403 9 110 0.0 1.6 0.00 0.76 0.00 86 1013.1
20260508014503 9 110 0.0 4.8 0.00 0.76 0.00 86 1013.1
20260508013603 9 0 0.0 0.0 0.00 0.76 0.00 86 1013.1
20260508012703 9 0 0.0 1.6 0.00 0.76 0.00 86 1013.2
20260508011803 9 0 0.0 0.0 0.00 0.76 0.00 86 1013.2
20260508010903 9 0 0.0 0.0 0.00 0.76 0.00 86 1013.2
20260508010003 9 0 0.0 0.0 0.00 0.76 0.00 86 1013.1
20260508005403 9 0 0.0 0.0 0.00 0.76 0.00 86 1013.3
20260508004504 9 0 0.0 0.0 0.00 0.76 0.00 86 1013.2
20260508003603 9 45 0.0 1.6 0.00 0.76 0.00 86 1012.9
20260508002703 10 45 0.0 1.6 0.00 0.76 0.00 86 1013.2
20260508002017 10 0 0.0 0.0 0.00 0.76 0.00 86 1013.2
20260508000903 10 0 0.0 0.0 0.00 0.76 0.00 86 1013.1
20260508000003 10 0 0.0 0.0 0.00 0.76 0.00 86 1012.9
20260507235403 10 0 0.0 0.0 0.00 0.76 0.00 86 1012.9
20260507234718 10 0 0.0 0.0 0.00 0.76 0.00 86 1012.9
20260507233603 10 0 0.0 0.0 0.00 0.76 0.00 86 1013.0
20260507232703 10 0 0.0 1.6 0.00 0.76 0.00 86 1013.0
20260507231804 10 0 0.0 0.0 0.00 0.76 0.00 86 1013.0
20260507230903 10 0 0.0 0.0 0.00 0.76 0.00 85 1012.9
20260507230005 10 0 0.0 0.0 0.00 2.36 0.00 85 1013.1
20260507225616 10 0 0.0 0.0 0.00 2.36 2.36 85 1012.8
20260507224504 10 0 0.0 0.0 0.00 2.36 2.36 85 1012.9
20260507223603 10 0 0.0 0.0 0.00 2.36 2.36 85 1012.9
20260507222703 10 44 0.0 1.6 0.00 2.36 2.36 85 1012.8
20260507221803 10 45 0.0 1.6 0.00 2.36 2.36 85 1012.9
20260507220903 10 44 0.0 1.6 0.00 2.36 2.36 85 1012.7
20260507220003 10 44 0.0 1.6 0.00 2.36 2.36 85 1012.6
20260507215403 10 44 0.0 1.6 0.00 2.36 2.36 85 1012.8
20260507214503 10 44 0.0 1.6 0.00 2.36 2.36 85 1012.8
20260507213603 10 44 1.6 4.8 0.00 2.36 2.36 85 1012.7
20260507212703 10 45 0.0 1.6 0.00 2.36 2.36 84 1012.7
20260507212017 10 45 0.0 1.6 0.00 2.36 2.36 84 1012.6
20260507210903 10 0 0.0 0.0 0.00 2.36 2.36 84 1012.5
20260507210003 10 45 0.0 1.6 0.00 2.36 2.36 84 1012.5
20260507205403 11 0 0.0 0.0 0.00 2.36 2.36 84 1012.5
20260507204717 11 0 0.0 0.0 0.00 2.36 2.36 84 1012.3
20260507203604 11 0 0.0 0.0 0.00 2.36 2.36 83 1012.2
20260507202918 11 0 0.0 1.6 0.00 2.36 2.36 83 1012.1
20260507202017 11 0 0.0 0.0 0.00 2.36 2.36 83 1012.0
20260507201118 11 0 0.0 0.0 0.00 2.36 2.36 83 1012.1
20260507200003 11 0 0.0 0.0 0.00 2.36 2.36 83 1012.0
20260507195403 11 0 0.0 0.0 0.00 2.36 2.36 83 1011.9
20260507194503 11 45 0.0 1.6 0.00 2.36 2.36 83 1011.9
20260507193603 11 45 1.6 4.8 0.00 2.36 2.36 82 1011.5
20260507192703 11 45 0.0 1.6 0.00 2.36 2.36 82 1011.9
20260507192017 11 45 0.0 1.6 0.00 2.36 2.36 82 1011.8
20260507190904 11 0 0.0 0.0 0.05 2.34 2.34 82 1011.5
20260507190004 11 45 0.0 1.6 0.05 2.34 2.34 82 1011.6
20260507185403 11 45 0.0 1.6 0.05 2.34 2.34 81 1011.6
20260507184718 12 45 0.0 4.8 0.05 2.34 2.34 81 1011.7
20260507183818 12 0 0.0 0.0 0.05 2.34 2.34 81 1011.4
20260507182704 12 0 0.0 0.0 0.05 2.34 2.34 80 1011.1
20260507181803 12 45 0.0 1.6 0.05 2.34 2.34 80 1011.2
20260507180903 12 45 0.0 4.8 0.00 2.29 2.29 80 1011.2
20260507180003 12 49 3.2 8.0 0.00 2.29 2.29 80 1011.4
20260507175403 12 45 4.8 12.9 0.00 2.29 2.29 80 1011.2
20260507174503 13 25 3.2 12.9 0.00 2.29 2.29 80 1011.2
20260507173603 13 42 1.6 6.4 0.00 2.29 2.29 80 1011.2
20260507172916 13 44 1.6 6.4 0.00 2.29 2.29 80 1011.0
20260507171804 13 18 3.2 11.3 0.03 2.29 2.29 80 1011.2
20260507171117 13 2 4.8 11.3 0.03 2.29 2.29 80 1011.0